Time,TemperatureF,DewpointF,PressureIn,WindDirection,WindDirectionDegrees,WindSpeedMPH,WindSpeedGustMPH,Humidity,HourlyPrecipIn,Conditions,Clouds,dailyrainin,SoftwareType,DateUTC
2013-04-16 00:03:00,29.7,13.7,30.18,North,0,0.0,0.0,51,0.00,CLR,,0.00,WeatherDisplay:10.37,2013-04-16 08:03:00,
2013-04-16 00:08:00,29.7,13.7,30.18,North,0,0.0,0.0,51,0.00,CLR,,0.00,WeatherDisplay:10.37,2013-04-16 08:08:00,
2013-04-16 00:13:00,29.8,13.9,30.18,North,0,0.0,0.0,51,0.00,CLR,,0.00,WeatherDisplay:10.37,2013-04-16 08:13:00,
2013-04-16 00:18:00,29.8,13.9,30.18,North,0,0.0,0.0,51,0.00,CLR,,0.00,WeatherDisplay:10.37,2013-04-16 08:18:00,
2013-04-16 00:23:00,29.8,13.4,30.18,North,0,0.0,0.0,50,0.00,CLR,,0.00,WeatherDisplay:10.37,2013-04-16 08:23:00,
2013-04-16 00:28:00,29.7,12.8,30.18,North,0,0.0,0.0,49,0.00,CLR,,0.00,WeatherDisplay:10.37,2013-04-16 08:28:00,
2013-04-16 00:33:00,29.8,12.5,30.18,North,0,0.0,0.0,48,0.00,CLR,,0.00,WeatherDisplay:10.37,2013-04-16 08:33:00,
2013-04-16 00:38:00,29.7,12.3,30.18,North,0,0.0,0.0,48,0.00,CLR,,0.00,WeatherDisplay:10.37,2013-04-16 08:38:00,
2013-04-16 00:43:00,29.5,12.2,30.18,North,0,0.0,0.0,48,0.00,CLR,,0.00,WeatherDisplay:10.37,2013-04-16 08:43:00,
2013-04-16 00:48:00,29.5,12.2,30.18,North,0,0.0,0.0,48,0.00,CLR,,0.00,WeatherDisplay:10.37,2013-04-16 08:48:00,
2013-04-16 00:53:00,29.5,11.7,30.18,North,0,0.0,0.0,47,0.00,CLR,,0.00,WeatherDisplay:10.37,2013-04-16 08:53:00,
2013-04-16 00:58:00,29.3,12.0,30.18,North,0,0.0,0.0,48,0.00,CLR,,0.00,WeatherDisplay:10.37,2013-04-16 08:58:00,
2013-04-16 01:03:00,29.5,12.6,30.18,North,0,0.0,0.0,49,0.00,CLR,,0.00,WeatherDisplay:10.37,2013-04-16 09:03:00,
2013-04-16 01:08:00,29.7,13.3,30.18,North,0,0.0,0.0,50,0.00,CLR,,0.00,WeatherDisplay:10.37,2013-04-16 09:08:00,
2013-04-16 01:13:00,29.7,12.3,30.18,North,0,0.0,0.0,48,0.00,CLR,,0.00,WeatherDisplay:10.37,2013-04-16 09:13:00,
2013-04-16 01:18:00,29.3,12.0,30.18,North,0,0.0,0.0,48,0.00,CLR,,0.00,WeatherDisplay:10.37,2013-04-16 09:18:00,
2013-04-16 01:23:00,28.8,11.5,30.18,North,0,0.0,0.0,48,0.00,CLR,,0.00,WeatherDisplay:10.37,2013-04-16 09:23:00,
2013-04-16 01:28:00,28.0,11.3,30.18,North,0,0.0,0.0,49,0.00,CLR,,0.00,WeatherDisplay:10.37,2013-04-16 09:28:00,
2013-04-16 01:33:00,27.9,11.1,30.18,North,0,0.0,0.0,49,0.00,CLR,,0.00,WeatherDisplay:10.37,2013-04-16 09:33:00,
2013-04-16 01:38:00,27.5,10.8,30.18,North,0,0.0,0.0,49,0.00,CLR,,0.00,WeatherDisplay:10.37,2013-04-16 09:38:00,
2013-04-16 01:43:00,27.3,11.1,30.18,North,0,0.0,0.0,50,0.00,CLR,,0.00,WeatherDisplay:10.37,2013-04-16 09:43:00,
2013-04-16 01:48:00,27.0,11.2,30.18,North,0,0.0,0.0,51,0.00,CLR,,0.00,WeatherDisplay:10.37,2013-04-16 09:48:00,
2013-04-16 01:53:00,26.8,11.0,30.18,North,0,0.0,0.0,51,0.00,CLR,,0.00,WeatherDisplay:10.37,2013-04-16 09:53:00,
2013-04-16 01:58:00,26.6,10.9,30.18,North,0,0.0,0.0,51,0.00,CLR,,0.00,WeatherDisplay:10.37,2013-04-16 09:58:00,
2013-04-16 02:03:00,26.2,10.5,30.18,North,0,0.0,0.0,51,0.00,CLR,,0.00,WeatherDisplay:10.37,2013-04-16 10:03:00,
2013-04-16 02:08:00,26.1,10.8,30.18,North,0,0.0,0.0,52,0.00,CLR,,0.00,WeatherDisplay:10.37,2013-04-16 10:08:00,
2013-04-16 02:13:00,26.1,10.4,30.18,North,0,0.0,0.0,51,0.00,CLR,,0.00,WeatherDisplay:10.37,2013-04-16 10:13:00,
2013-04-16 02:18:00,26.1,10.4,30.18,North,0,0.0,0.0,51,0.00,CLR,,0.00,WeatherDisplay:10.37,2013-04-16 10:18:00,
2013-04-16 02:23:00,25.9,9.8,30.18,North,0,0.0,0.0,50,0.00,CLR,,0.00,WeatherDisplay:10.37,2013-04-16 10:23:00,
2013-04-16 02:28:00,26.1,9.9,30.18,North,0,0.0,0.0,50,0.00,CLR,,0.00,WeatherDisplay:10.37,2013-04-16 10:28:00,
2013-04-16 02:33:00,25.7,9.6,30.18,North,0,0.0,0.0,50,0.00,CLR,,0.00,WeatherDisplay:10.37,2013-04-16 10:33:00,
2013-04-16 02:38:00,25.5,9.4,30.18,North,0,0.0,0.0,50,0.00,CLR,,0.00,WeatherDisplay:10.37,2013-04-16 10:38:00,
2013-04-16 02:43:00,25.5,9.4,30.18,North,0,0.0,0.0,50,0.00,CLR,,0.00,WeatherDisplay:10.37,2013-04-16 10:43:00,
2013-04-16 02:48:00,25.2,9.1,30.18,North,0,0.0,0.0,50,0.00,CLR,,0.00,WeatherDisplay:10.37,2013-04-16 10:48:00,
2013-04-16 02:53:00,25.3,9.7,30.18,North,0,0.0,0.0,51,0.00,CLR,,0.00,WeatherDisplay:10.37,2013-04-16 10:53:00,
2013-04-16 02:58:00,25.3,9.3,30.18,North,0,0.0,0.0,50,0.00,CLR,,0.00,WeatherDisplay:10.37,2013-04-16 10:58:00,
2013-04-16 03:03:00,24.8,9.2,30.18,North,0,0.0,0.0,51,0.00,CLR,,0.00,WeatherDisplay:10.37,2013-04-16 11:03:00,
2013-04-16 03:08:00,24.4,8.9,30.18,North,0,0.0,0.0,51,0.00,CLR,,0.00,WeatherDisplay:10.37,2013-04-16 11:08:00,
2013-04-16 03:13:00,24.4,9.3,30.18,North,0,0.0,0.0,52,0.00,CLR,,0.00,WeatherDisplay:10.37,2013-04-16 11:13:00,
2013-04-16 03:18:00,24.4,8.9,30.18,North,0,0.0,0.0,51,0.00,CLR,,0.00,WeatherDisplay:10.37,2013-04-16 11:18:00,
2013-04-16 03:23:00,24.4,9.3,30.18,North,0,0.0,0.0,52,0.00,CLR,,0.00,WeatherDisplay:10.37,2013-04-16 11:23:00,
2013-04-16 03:28:00,24.4,9.3,30.18,North,0,0.0,0.0,52,0.00,CLR,,0.00,WeatherDisplay:10.37,2013-04-16 11:28:00,
2013-04-16 03:33:00,24.4,9.3,30.18,North,0,0.0,0.0,52,0.00,CLR,,0.00,WeatherDisplay:10.37,2013-04-16 11:33:00,
2013-04-16 03:38:00,24.8,9.6,30.18,North,0,0.0,0.0,52,0.00,CLR,,0.00,WeatherDisplay:10.37,2013-04-16 11:38:00,
2013-04-16 03:43:00,24.8,9.6,30.15,North,0,0.0,0.0,52,0.00,CLR,,0.00,WeatherDisplay:10.37,2013-04-16 11:43:00,
2013-04-16 03:48:00,24.8,9.6,30.15,North,0,0.0,0.0,52,0.00,CLR,,0.00,WeatherDisplay:10.37,2013-04-16 11:48:00,
2013-04-16 03:53:00,24.8,9.2,30.15,North,0,0.0,0.0,51,0.00,CLR,,0.00,WeatherDisplay:10.37,2013-04-16 11:53:00,
2013-04-16 03:58:00,24.6,9.5,30.15,North,0,0.0,0.0,52,0.00,CLR,,0.00,WeatherDisplay:10.37,2013-04-16 11:58:00,
2013-04-16 04:03:00,24.4,9.3,30.15,North,0,0.0,0.0,52,0.00,CLR,,0.00,WeatherDisplay:10.37,2013-04-16 12:03:00,
2013-04-16 04:08:00,24.3,9.1,30.15,North,0,0.0,0.0,52,0.00,CLR,,0.00,WeatherDisplay:10.37,2013-04-16 12:08:00,
2013-04-16 04:13:00,24.1,9.0,30.15,North,0,0.0,0.0,52,0.00,CLR,,0.00,WeatherDisplay:10.37,2013-04-16 12:13:00,
2013-04-16 04:18:00,24.1,9.0,30.15,North,0,0.0,0.0,52,0.00,CLR,,0.00,WeatherDisplay:10.37,2013-04-16 12:18:00,
2013-04-16 04:23:00,24.1,9.0,30.15,North,0,0.0,0.0,52,0.00,CLR,,0.00,WeatherDisplay:10.37,2013-04-16 12:23:00,
2013-04-16 04:28:00,24.1,9.0,30.15,North,0,0.0,0.0,52,0.00,CLR,,0.00,WeatherDisplay:10.37,2013-04-16 12:28:00,
2013-04-16 04:33:00,24.1,8.5,30.15,North,0,0.0,0.0,51,0.00,CLR,,0.00,WeatherDisplay:10.37,2013-04-16 12:33:00,
2013-04-16 04:38:00,24.1,8.1,30.15,North,0,0.0,0.0,50,0.00,CLR,,0.00,WeatherDisplay:10.37,2013-04-16 12:38:00,
2013-04-16 04:43:00,24.3,8.7,30.15,North,0,0.0,0.0,51,0.00,CLR,,0.00,WeatherDisplay:10.37,2013-04-16 12:43:00,
2013-04-16 04:48:00,24.3,8.3,30.15,North,0,0.0,0.0,50,0.00,CLR,,0.00,WeatherDisplay:10.37,2013-04-16 12:48:00,
2013-04-16 04:53:00,24.3,8.3,30.15,North,0,0.0,0.0,50,0.00,CLR,,0.00,WeatherDisplay:10.37,2013-04-16 12:53:00,
2013-04-16 04:58:00,24.1,8.5,30.15,North,0,0.0,0.0,51,0.00,CLR,,0.00,WeatherDisplay:10.37,2013-04-16 12:58:00,
2013-04-16 05:03:00,24.1,8.5,30.15,North,0,0.0,0.0,51,0.00,CLR,,0.00,WeatherDisplay:10.37,2013-04-16 13:03:00,
2013-04-16 05:08:00,23.5,8.5,30.15,North,0,0.0,0.0,52,0.00,CLR,,0.00,WeatherDisplay:10.37,2013-04-16 13:08:00,
2013-04-16 05:13:00,23.0,8.0,30.15,North,0,0.0,0.0,52,0.00,CLR,,0.00,WeatherDisplay:10.37,2013-04-16 13:13:00,
2013-04-16 05:18:00,22.5,7.9,30.15,North,0,0.0,0.0,53,0.00,CLR,,0.00,WeatherDisplay:10.37,2013-04-16 13:18:00,
2013-04-16 05:23:00,21.9,7.8,30.15,North,0,0.0,0.0,54,0.00,CLR,,0.00,WeatherDisplay:10.37,2013-04-16 13:23:00,
2013-04-16 05:28:00,21.7,7.6,30.15,North,0,0.0,0.0,54,0.00,CLR,,0.00,WeatherDisplay:10.37,2013-04-16 13:28:00,
2013-04-16 05:33:00,21.4,7.3,30.15,North,0,0.0,0.0,54,0.00,CLR,,0.00,WeatherDisplay:10.37,2013-04-16 13:33:00,
2013-04-16 05:39:00,21.6,7.9,30.15,North,0,0.0,0.0,55,0.00,CLR,,0.00,WeatherDisplay:10.37,2013-04-16 13:39:00,
2013-04-16 05:44:00,22.8,8.2,30.15,North,0,0.0,0.0,53,0.00,CLR,,0.00,WeatherDisplay:10.37,2013-04-16 13:44:00,
2013-04-16 05:49:00,22.8,8.2,30.15,North,0,0.0,0.0,53,0.00,CLR,,0.00,WeatherDisplay:10.37,2013-04-16 13:49:00,
2013-04-16 05:54:00,22.8,7.8,30.15,North,0,0.0,0.0,52,0.00,CLR,,0.00,WeatherDisplay:10.37,2013-04-16 13:54:00,
2013-04-16 05:59:00,22.8,7.8,30.15,North,0,0.0,0.0,52,0.00,CLR,,0.00,WeatherDisplay:10.37,2013-04-16 13:59:00,
2013-04-16 06:04:00,22.5,7.5,30.15,North,0,0.0,0.0,52,0.00,CLR,,0.00,WeatherDisplay:10.37,2013-04-16 14:04:00,
2013-04-16 06:09:00,22.5,7.5,30.15,North,0,0.0,0.0,52,0.00,CLR,,0.00,WeatherDisplay:10.37,2013-04-16 14:09:00,
2013-04-16 06:14:00,22.8,7.8,30.12,North,0,0.0,0.0,52,0.00,CLR,,0.00,WeatherDisplay:10.37,2013-04-16 14:14:00,
2013-04-16 06:19:00,22.1,7.1,30.12,North,0,0.0,0.0,52,0.00,CLR,,0.00,WeatherDisplay:10.37,2013-04-16 14:19:00,
2013-04-16 06:24:00,21.9,7.0,30.12,North,0,0.0,0.0,52,0.00,CLR,,0.00,WeatherDisplay:10.37,2013-04-16 14:24:00,
2013-04-16 06:29:00,21.7,7.2,30.15,North,0,0.0,0.0,53,0.00,CLR,,0.00,WeatherDisplay:10.37,2013-04-16 14:29:00,
2013-04-16 06:34:00,21.2,6.7,30.15,North,0,0.0,0.0,53,0.00,CLR,,0.00,WeatherDisplay:10.37,2013-04-16 14:34:00,
2013-04-16 06:39:00,20.7,6.6,30.15,North,0,0.0,0.0,54,0.00,CLR,,0.00,WeatherDisplay:10.37,2013-04-16 14:39:00,
2013-04-16 06:44:00,20.3,6.3,30.12,North,0,0.0,0.0,54,0.00,CLR,,0.00,WeatherDisplay:10.37,2013-04-16 14:44:00,
2013-04-16 06:49:00,20.1,6.1,30.12,North,0,0.0,0.0,54,0.00,CLR,,0.00,WeatherDisplay:10.37,2013-04-16 14:49:00,
2013-04-16 06:54:00,19.8,6.2,30.12,North,0,0.0,0.0,55,0.00,CLR,,0.00,WeatherDisplay:10.37,2013-04-16 14:54:00,
2013-04-16 06:59:00,19.8,6.2,30.12,North,0,0.0,0.0,55,0.00,CLR,,0.00,WeatherDisplay:10.37,2013-04-16 14:59:00,
2013-04-16 07:04:00,19.8,6.6,30.12,North,0,0.0,0.0,56,0.00,CLR,,0.00,WeatherDisplay:10.37,2013-04-16 15:04:00,
2013-04-16 07:09:00,19.4,6.6,30.12,North,0,0.0,0.0,57,0.00,CLR,,0.00,WeatherDisplay:10.37,2013-04-16 15:09:00,
2013-04-16 07:14:00,19.4,7.0,30.12,North,0,0.0,0.0,58,0.00,CLR,,0.00,WeatherDisplay:10.37,2013-04-16 15:14:00,
2013-04-16 07:19:00,19.6,6.8,30.12,North,0,0.0,0.0,57,0.00,CLR,,0.00,WeatherDisplay:10.37,2013-04-16 15:19:00,
2013-04-16 07:24:00,19.8,7.4,30.12,North,0,0.0,0.0,58,0.00,CLR,,0.00,WeatherDisplay:10.37,2013-04-16 15:24:00,
2013-04-16 07:29:00,20.1,7.7,30.12,North,0,0.0,0.0,58,0.00,CLR,,0.00,WeatherDisplay:10.37,2013-04-16 15:29:00,
2013-04-16 07:34:00,20.3,8.2,30.12,North,0,0.0,0.0,59,0.00,CLR,,0.00,WeatherDisplay:10.37,2013-04-16 15:34:00,
2013-04-16 07:39:00,21.0,8.9,30.12,North,0,0.0,0.0,59,0.00,CLR,,0.00,WeatherDisplay:10.37,2013-04-16 15:39:00,
2013-04-16 07:44:00,21.9,9.0,30.12,North,0,0.0,0.0,57,0.00,CLR,,0.00,WeatherDisplay:10.37,2013-04-16 15:44:00,
2013-04-16 07:49:00,22.3,8.9,30.12,North,0,0.0,0.0,56,0.00,CLR,,0.00,WeatherDisplay:10.37,2013-04-16 15:49:00,
2013-04-16 07:54:00,22.6,8.9,30.12,North,0,0.0,0.0,55,0.00,CLR,,0.00,WeatherDisplay:10.37,2013-04-16 15:54:00,
2013-04-16 07:59:00,23.0,8.8,30.12,North,0,0.0,0.0,54,0.00,CLR,,0.00,WeatherDisplay:10.37,2013-04-16 15:59:00,
2013-04-16 08:04:00,23.4,8.7,30.12,North,0,0.0,0.0,53,0.00,CLR,,0.00,WeatherDisplay:10.37,2013-04-16 16:04:00,
2013-04-16 08:09:00,23.7,9.1,30.12,North,0,0.0,0.0,53,0.00,CLR,,0.00,WeatherDisplay:10.37,2013-04-16 16:09:00,
2013-04-16 08:14:00,24.3,9.1,30.12,North,0,0.0,0.0,52,0.00,CLR,,0.00,WeatherDisplay:10.37,2013-04-16 16:14:00,
2013-04-16 08:19:00,25.5,9.9,30.12,North,0,0.0,0.0,51,0.00,CLR,,0.00,WeatherDisplay:10.37,2013-04-16 16:19:00,
2013-04-16 08:24:00,26.2,10.1,30.12,North,0,0.0,0.0,50,0.00,CLR,,0.00,WeatherDisplay:10.37,2013-04-16 16:24:00,
2013-04-16 08:29:00,26.8,9.7,30.12,North,0,0.0,0.0,48,0.00,CLR,,0.00,WeatherDisplay:10.37,2013-04-16 16:29:00,
2013-04-16 08:34:00,27.0,9.4,30.12,North,0,0.0,0.0,47,0.00,CLR,,0.00,WeatherDisplay:10.37,2013-04-16 16:34:00,
2013-04-16 08:39:00,27.3,10.2,30.12,North,0,0.0,0.0,48,0.00,CLR,,0.00,WeatherDisplay:10.37,2013-04-16 16:39:00,
2013-04-16 08:45:00,28.2,11.0,30.12,North,0,0.0,0.0,48,0.00,CLR,,0.00,WeatherDisplay:10.37,2013-04-16 16:45:00,
2013-04-16 08:50:00,28.6,10.4,30.12,North,0,0.0,0.0,46,0.00,CLR,,0.00,WeatherDisplay:10.37,2013-04-16 16:50:00,
2013-04-16 08:55:00,28.6,9.9,30.12,North,0,0.0,0.0,45,0.00,CLR,,0.00,WeatherDisplay:10.37,2013-04-16 16:55:00,
2013-04-16 09:00:00,28.6,9.9,30.12,North,0,0.0,0.0,45,0.00,CLR,,0.00,WeatherDisplay:10.37,2013-04-16 17:00:00,
2013-04-16 09:05:00,28.4,9.7,30.12,North,0,0.0,0.0,45,0.00,CLR,,0.00,WeatherDisplay:10.37,2013-04-16 17:05:00,
2013-04-16 09:10:00,28.6,9.9,30.12,North,0,0.0,0.0,45,0.00,CLR,,0.00,WeatherDisplay:10.37,2013-04-16 17:10:00,
2013-04-16 09:15:00,28.4,9.2,30.12,North,0,0.0,0.0,44,0.00,CLR,,0.00,WeatherDisplay:10.37,2013-04-16 17:15:00,
2013-04-16 09:20:00,28.2,9.1,30.12,North,0,0.0,0.0,44,0.00,CLR,,0.00,WeatherDisplay:10.37,2013-04-16 17:20:00,
2013-04-16 09:25:00,28.0,8.9,30.12,North,0,0.0,0.0,44,0.00,CLR,,0.00,WeatherDisplay:10.37,2013-04-16 17:25:00,
2013-04-16 09:30:00,28.0,8.9,30.09,North,0,0.0,0.0,44,0.00,CLR,,0.00,WeatherDisplay:10.37,2013-04-16 17:30:00,
2013-04-16 09:35:00,27.5,8.4,30.09,North,0,0.0,0.0,44,0.00,CLR,,0.00,WeatherDisplay:10.37,2013-04-16 17:35:00,
2013-04-16 09:40:00,27.5,8.4,30.09,North,0,0.0,0.0,44,0.00,CLR,,0.00,WeatherDisplay:10.37,2013-04-16 17:40:00,
2013-04-16 09:45:00,27.7,9.1,30.12,North,0,0.0,0.0,45,0.00,CLR,,0.00,WeatherDisplay:10.37,2013-04-16 17:45:00,
2013-04-16 09:50:00,27.9,9.2,30.12,North,0,0.0,0.0,45,0.00,CLR,,0.00,WeatherDisplay:10.37,2013-04-16 17:50:00,
2013-04-16 09:55:00,27.9,9.2,30.12,North,0,0.0,0.0,45,0.00,CLR,,0.00,WeatherDisplay:10.37,2013-04-16 17:55:00,
2013-04-16 10:00:00,27.7,9.1,30.09,North,0,0.0,0.0,45,0.00,CLR,,0.00,WeatherDisplay:10.37,2013-04-16 18:00:00,
2013-04-16 10:05:00,27.7,9.1,30.09,North,0,0.0,0.0,45,0.00,CLR,,0.00,WeatherDisplay:10.37,2013-04-16 18:05:00,
2013-04-16 10:10:00,27.5,8.9,30.09,North,0,0.0,0.0,45,0.00,CLR,,0.00,WeatherDisplay:10.37,2013-04-16 18:10:00,
2013-04-16 10:15:00,28.2,9.6,30.09,North,0,0.0,0.0,45,0.00,CLR,,0.00,WeatherDisplay:10.37,2013-04-16 18:15:00,
2013-04-16 10:20:00,28.0,9.4,30.09,North,0,0.0,0.0,45,0.00,CLR,,0.00,WeatherDisplay:10.37,2013-04-16 18:20:00,
2013-04-16 10:25:00,27.9,8.7,30.09,North,0,0.0,0.0,44,0.00,CLR,,0.00,WeatherDisplay:10.37,2013-04-16 18:25:00,
2013-04-16 10:30:00,28.6,9.9,30.09,North,0,0.0,0.0,45,0.00,CLR,,0.00,WeatherDisplay:10.37,2013-04-16 18:30:00,
2013-04-16 10:35:00,28.8,10.1,30.09,North,0,0.0,0.0,45,0.00,CLR,,0.00,WeatherDisplay:10.37,2013-04-16 18:35:00,
2013-04-16 10:40:00,28.6,9.4,30.09,North,0,0.0,0.0,44,0.00,CLR,,0.00,WeatherDisplay:10.37,2013-04-16 18:40:00,
2013-04-16 10:45:00,29.5,10.7,30.09,North,0,0.0,0.0,45,0.00,CLR,,0.00,WeatherDisplay:10.37,2013-04-16 18:45:00,
2013-04-16 10:50:00,30.2,10.9,30.09,North,0,0.0,0.0,44,0.00,CLR,,0.00,WeatherDisplay:10.37,2013-04-16 18:50:00,
2013-04-16 10:55:00,30.6,11.2,30.09,North,0,0.0,0.0,44,0.00,CLR,,0.00,WeatherDisplay:10.37,2013-04-16 18:55:00,
2013-04-16 11:00:00,31.1,11.7,30.09,North,0,0.0,0.0,44,0.00,CLR,,0.00,WeatherDisplay:10.37,2013-04-16 19:00:00,
2013-04-16 11:05:00,32.5,12.5,30.09,North,0,0.0,0.0,43,0.00,CLR,,0.00,WeatherDisplay:10.37,2013-04-16 19:05:00,
2013-04-16 11:10:00,32.7,12.7,30.09,North,0,0.0,0.0,43,0.00,CLR,,0.00,WeatherDisplay:10.37,2013-04-16 19:10:00,
2013-04-16 11:15:00,33.1,13.0,30.09,North,0,0.0,0.0,43,0.00,CLR,,0.00,WeatherDisplay:10.37,2013-04-16 19:15:00,
2013-04-16 11:20:00,33.1,13.0,30.09,North,0,0.0,0.0,43,0.00,CLR,,0.00,WeatherDisplay:10.37,2013-04-16 19:20:00,
2013-04-16 11:25:00,33.6,12.9,30.09,North,0,0.0,0.0,42,0.00,CLR,,0.00,WeatherDisplay:10.37,2013-04-16 19:25:00,
2013-04-16 11:30:00,33.3,12.6,30.09,North,0,0.0,0.0,42,0.00,CLR,,0.00,WeatherDisplay:10.37,2013-04-16 19:30:00,
2013-04-16 11:35:00,33.6,12.9,30.09,North,0,0.0,0.0,42,0.00,CLR,,0.00,WeatherDisplay:10.37,2013-04-16 19:35:00,
2013-04-16 11:40:00,34.9,14.1,30.09,North,0,0.0,0.0,42,0.00,CLR,,0.00,WeatherDisplay:10.37,2013-04-16 19:40:00,
2013-04-16 11:45:00,34.5,13.2,30.09,North,0,0.0,0.0,41,0.00,CLR,,0.00,WeatherDisplay:10.37,2013-04-16 19:45:00,
2013-04-16 11:50:00,34.7,13.9,30.09,North,0,0.0,0.0,42,0.00,CLR,,0.00,WeatherDisplay:10.37,2013-04-16 19:50:00,
2013-04-16 11:55:00,35.4,14.0,30.09,North,0,0.0,0.0,41,0.00,CLR,,0.00,WeatherDisplay:10.37,2013-04-16 19:55:00,
2013-04-16 12:00:00,35.2,13.9,30.06,North,0,0.0,0.0,41,0.00,CLR,,0.00,WeatherDisplay:10.37,2013-04-16 20:00:00,
2013-04-16 12:05:00,34.9,13.5,30.06,North,0,0.0,0.0,41,0.00,CLR,,0.00,WeatherDisplay:10.37,2013-04-16 20:05:00,
2013-04-16 12:10:00,35.2,13.9,30.06,North,0,0.0,0.0,41,0.00,CLR,,0.00,WeatherDisplay:10.37,2013-04-16 20:10:00,
2013-04-16 12:15:00,36.5,14.4,30.06,North,0,0.0,0.0,40,0.00,CLR,,0.00,WeatherDisplay:10.37,2013-04-16 20:15:00,
2013-04-16 12:20:00,36.3,14.3,30.06,North,0,0.0,0.0,40,0.00,CLR,,0.00,WeatherDisplay:10.37,2013-04-16 20:20:00,
2013-04-16 12:25:00,36.7,14.6,30.06,North,0,0.0,0.0,40,0.00,CLR,,0.00,WeatherDisplay:10.37,2013-04-16 20:25:00,
2013-04-16 12:30:00,37.2,15.1,30.06,North,0,0.0,0.0,40,0.00,CLR,,0.00,WeatherDisplay:10.37,2013-04-16 20:30:00,
2013-04-16 12:35:00,37.4,14.7,30.06,North,0,0.0,0.0,39,0.00,CLR,,0.00,WeatherDisplay:10.37,2013-04-16 20:35:00,
2013-04-16 12:40:00,38.7,15.8,30.06,North,0,0.0,0.0,39,0.00,CLR,,0.00,WeatherDisplay:10.37,2013-04-16 20:40:00,
2013-04-16 12:45:00,38.5,15.6,30.06,North,0,0.0,0.0,39,0.00,CLR,,0.00,WeatherDisplay:10.37,2013-04-16 20:45:00,
2013-04-16 12:50:00,38.5,15.6,30.06,North,0,0.0,0.0,39,0.00,CLR,,0.00,WeatherDisplay:10.37,2013-04-16 20:50:00,
2013-04-16 12:55:00,38.1,15.3,30.06,North,0,0.0,0.0,39,0.00,CLR,,0.00,WeatherDisplay:10.37,2013-04-16 20:55:00,
2013-04-16 13:00:00,39.2,16.3,30.06,North,0,0.0,0.0,39,0.00,CLR,,0.00,WeatherDisplay:10.37,2013-04-16 21:00:00,
2013-04-16 13:05:00,38.8,16.0,30.06,North,0,0.0,0.0,39,0.00,CLR,,0.00,WeatherDisplay:10.37,2013-04-16 21:05:00,
2013-04-16 13:10:00,39.2,15.7,30.06,North,0,0.0,0.0,38,0.00,CLR,,0.00,WeatherDisplay:10.37,2013-04-16 21:10:00,
2013-04-16 13:15:00,39.7,16.8,30.06,North,0,0.0,0.0,39,0.00,CLR,,0.00,WeatherDisplay:10.37,2013-04-16 21:15:00,
2013-04-16 13:20:00,40.1,16.5,30.06,North,0,0.0,0.0,38,0.00,CLR,,0.00,WeatherDisplay:10.37,2013-04-16 21:20:00,
2013-04-16 13:25:00,39.4,15.2,30.06,North,0,0.0,0.0,37,0.00,CLR,,0.00,WeatherDisplay:10.37,2013-04-16 21:25:00,
2013-04-16 13:30:00,38.8,15.4,30.06,North,0,0.0,0.0,38,0.00,CLR,,0.00,WeatherDisplay:10.37,2013-04-16 21:30:00,
2013-04-16 13:35:00,39.2,15.7,30.06,North,0,0.0,0.0,38,0.00,CLR,,0.00,WeatherDisplay:10.37,2013-04-16 21:35:00,
2013-04-16 13:40:00,40.3,17.3,30.06,North,0,0.0,0.0,39,0.00,CLR,,0.00,WeatherDisplay:10.37,2013-04-16 21:40:00,
2013-04-16 13:45:00,39.9,16.9,30.06,North,0,0.0,0.0,39,0.00,CLR,,0.00,WeatherDisplay:10.37,2013-04-16 21:45:00,
2013-04-16 13:50:00,39.7,16.2,30.06,North,0,0.0,0.0,38,0.00,CLR,,0.00,WeatherDisplay:10.37,2013-04-16 21:50:00,
2013-04-16 13:55:00,38.5,14.4,30.06,North,0,0.0,0.0,37,0.00,CLR,,0.00,WeatherDisplay:10.37,2013-04-16 21:55:00,
2013-04-16 14:00:00,38.1,14.1,30.03,North,0,0.0,0.0,37,0.00,CLR,,0.00,WeatherDisplay:10.37,2013-04-16 22:00:00,
2013-04-16 14:05:00,36.7,13.4,30.03,North,0,0.0,0.0,38,0.00,CLR,,0.00,WeatherDisplay:10.37,2013-04-16 22:05:00,
2013-04-16 14:10:00,36.1,12.9,30.03,North,0,0.0,0.0,38,0.00,CLR,,0.00,WeatherDisplay:10.37,2013-04-16 22:10:00,
2013-04-16 14:15:00,35.6,13.0,30.03,North,0,0.0,0.0,39,0.00,CLR,,0.00,WeatherDisplay:10.37,2013-04-16 22:15:00,
2013-04-16 14:20:00,35.1,12.0,30.03,North,0,0.0,0.0,38,0.00,CLR,,0.00,WeatherDisplay:10.37,2013-04-16 22:20:00,
2013-04-16 14:25:00,35.1,12.6,30.03,North,0,0.0,0.0,39,0.00,CLR,,0.00,WeatherDisplay:10.37,2013-04-16 22:25:00,
2013-04-16 14:30:00,35.2,12.7,30.03,North,0,0.0,0.0,39,0.00,CLR,,0.00,WeatherDisplay:10.37,2013-04-16 22:30:00,
2013-04-16 14:35:00,36.0,13.4,30.03,North,0,0.0,0.0,39,0.00,CLR,,0.00,WeatherDisplay:10.37,2013-04-16 22:35:00,
2013-04-16 14:40:00,37.0,14.3,30.03,North,0,0.0,0.0,39,0.00,CLR,,0.00,WeatherDisplay:10.37,2013-04-16 22:40:00,
2013-04-16 14:45:00,37.6,14.8,30.03,North,0,0.0,0.0,39,0.00,CLR,,0.00,WeatherDisplay:10.37,2013-04-16 22:45:00,
2013-04-16 14:50:00,37.8,14.4,30.03,North,0,0.0,0.0,38,0.00,CLR,,0.00,WeatherDisplay:10.37,2013-04-16 22:50:00,
2013-04-16 14:55:00,37.9,14.6,30.03,North,0,0.0,0.0,38,0.00,CLR,,0.00,WeatherDisplay:10.37,2013-04-16 22:55:00,
2013-04-16 15:00:00,38.5,15.0,30.03,North,0,0.0,0.0,38,0.00,CLR,,0.00,WeatherDisplay:10.37,2013-04-16 23:00:00,
2013-04-16 15:05:00,38.5,15.0,30.03,North,0,0.0,0.0,38,0.00,CLR,,0.00,WeatherDisplay:10.37,2013-04-16 23:05:00,
2013-04-16 15:10:00,39.2,15.1,30.03,North,0,0.0,0.0,37,0.00,CLR,,0.00,WeatherDisplay:10.37,2013-04-16 23:10:00,
2013-04-16 15:15:00,40.3,16.7,30.03,North,0,0.0,0.0,38,0.00,CLR,,0.00,WeatherDisplay:10.37,2013-04-16 23:15:00,
2013-04-16 15:20:00,39.6,15.4,30.03,North,0,0.0,0.0,37,0.00,CLR,,0.00,WeatherDisplay:10.37,2013-04-16 23:20:00,
2013-04-16 15:25:00,40.3,16.7,30.03,North,0,0.0,0.0,38,0.00,CLR,,0.00,WeatherDisplay:10.37,2013-04-16 23:25:00,
2013-04-16 15:30:00,40.5,16.8,30.03,North,0,0.0,0.0,38,0.00,CLR,,0.00,WeatherDisplay:10.37,2013-04-16 23:30:00,
2013-04-16 15:35:00,40.3,16.0,30.03,North,0,0.0,0.0,37,0.00,CLR,,0.00,WeatherDisplay:10.37,2013-04-16 23:35:00,
2013-04-16 15:40:00,39.4,14.6,30.03,North,0,0.0,0.0,36,0.00,CLR,,0.00,WeatherDisplay:10.37,2013-04-16 23:40:00,
2013-04-16 15:45:00,39.7,14.9,30.03,North,0,0.0,0.0,36,0.00,CLR,,0.00,WeatherDisplay:10.37,2013-04-16 23:45:00,
2013-04-16 15:50:00,38.5,14.4,30.03,North,0,0.0,0.0,37,0.00,CLR,,0.00,WeatherDisplay:10.37,2013-04-16 23:50:00,
2013-04-16 15:55:00,37.8,13.8,30.03,North,0,0.0,0.0,37,0.00,CLR,,0.00,WeatherDisplay:10.37,2013-04-16 23:55:00,
2013-04-16 16:00:00,36.9,13.0,30.03,North,0,0.0,0.0,37,0.00,CLR,,0.00,WeatherDisplay:10.37,2013-04-17 00:00:00,
2013-04-16 16:05:00,36.1,12.3,30.03,North,0,0.0,0.0,37,0.00,CLR,,0.00,WeatherDisplay:10.37,2013-04-17 00:05:00,
2013-04-16 16:10:00,36.0,12.2,30.03,North,0,0.0,0.0,37,0.00,CLR,,0.00,WeatherDisplay:10.37,2013-04-17 00:10:00,
2013-04-16 16:15:00,36.1,12.9,30.03,North,0,0.0,0.0,38,0.00,CLR,,0.00,WeatherDisplay:10.37,2013-04-17 00:15:00,
2013-04-16 16:20:00,35.8,13.2,30.03,North,0,0.0,0.0,39,0.00,CLR,,0.00,WeatherDisplay:10.37,2013-04-17 00:20:00,
2013-04-16 16:25:00,35.4,12.3,30.03,North,0,0.0,0.0,38,0.00,CLR,,0.00,WeatherDisplay:10.37,2013-04-17 00:25:00,
2013-04-16 16:30:00,35.6,12.5,30.03,North,0,0.0,0.0,38,0.00,CLR,,0.00,WeatherDisplay:10.37,2013-04-17 00:30:00,
2013-04-16 16:35:00,35.6,12.5,30.03,North,0,0.0,0.0,38,0.00,CLR,,0.00,WeatherDisplay:10.37,2013-04-17 00:35:00,
2013-04-16 16:40:00,35.8,12.6,30.03,North,0,0.0,0.0,38,0.00,CLR,,0.00,WeatherDisplay:10.37,2013-04-17 00:40:00,
2013-04-16 16:45:00,36.0,12.8,30.00,North,0,0.0,0.0,38,0.00,CLR,,0.00,WeatherDisplay:10.37,2013-04-17 00:45:00,
2013-04-16 16:50:00,36.3,13.7,30.00,North,0,0.0,0.0,39,0.00,CLR,,0.00,WeatherDisplay:10.37,2013-04-17 00:50:00,
2013-04-16 16:55:00,37.4,14.1,30.00,North,0,0.0,0.0,38,0.00,CLR,,0.00,WeatherDisplay:10.37,2013-04-17 00:55:00,
2013-04-16 17:00:00,38.1,15.3,30.00,North,0,0.0,0.0,39,0.00,CLR,,0.00,WeatherDisplay:10.37,2013-04-17 01:00:00,
2013-04-16 17:05:00,39.2,15.7,30.00,North,0,0.0,0.0,38,0.00,CLR,,0.00,WeatherDisplay:10.37,2013-04-17 01:05:00,
2013-04-16 17:10:00,39.4,15.2,30.00,North,0,0.0,0.0,37,0.00,CLR,,0.00,WeatherDisplay:10.37,2013-04-17 01:10:00,
2013-04-16 17:15:00,38.7,14.6,30.00,North,0,0.0,0.0,37,0.00,CLR,,0.00,WeatherDisplay:10.37,2013-04-17 01:15:00,
2013-04-16 17:20:00,38.7,15.2,30.00,North,0,0.0,0.0,38,0.00,CLR,,0.00,WeatherDisplay:10.37,2013-04-17 01:20:00,
2013-04-16 17:25:00,38.1,13.5,30.00,North,0,0.0,0.0,36,0.00,CLR,,0.00,WeatherDisplay:10.37,2013-04-17 01:25:00,
2013-04-16 17:30:00,37.8,13.2,30.00,North,0,0.0,0.0,36,0.00,CLR,,0.00,WeatherDisplay:10.37,2013-04-17 01:30:00,
2013-04-16 17:35:00,37.0,13.7,30.00,North,0,0.0,0.0,38,0.00,CLR,,0.00,WeatherDisplay:10.37,2013-04-17 01:35:00,
2013-04-16 17:40:00,37.6,14.2,30.00,North,0,0.0,0.0,38,0.00,CLR,,0.00,WeatherDisplay:10.37,2013-04-17 01:40:00,
2013-04-16 17:45:00,37.9,15.1,30.00,North,0,0.0,0.0,39,0.00,CLR,,0.00,WeatherDisplay:10.37,2013-04-17 01:45:00,
2013-04-16 17:50:00,37.8,15.0,30.00,North,0,0.0,0.0,39,0.00,CLR,,0.00,WeatherDisplay:10.37,2013-04-17 01:50:00,
2013-04-16 17:55:00,37.4,14.7,30.00,North,0,0.0,0.0,39,0.00,CLR,,0.00,WeatherDisplay:10.37,2013-04-17 01:55:00,
2013-04-16 18:00:00,37.2,15.1,30.00,North,0,0.0,0.0,40,0.00,CLR,,0.00,WeatherDisplay:10.37,2013-04-17 02:00:00,
2013-04-16 18:05:00,36.9,14.8,30.00,North,0,0.0,0.0,40,0.00,CLR,,0.00,WeatherDisplay:10.37,2013-04-17 02:05:00,
2013-04-16 18:10:00,36.7,14.6,30.00,North,0,0.0,0.0,40,0.00,CLR,,0.00,WeatherDisplay:10.37,2013-04-17 02:10:00,
2013-04-16 18:15:00,36.7,14.6,30.00,North,0,0.0,0.0,40,0.00,CLR,,0.00,WeatherDisplay:10.37,2013-04-17 02:15:00,
2013-04-16 18:20:00,36.7,14.6,30.00,North,0,0.0,0.0,40,0.00,CLR,,0.00,WeatherDisplay:10.37,2013-04-17 02:20:00,
2013-04-16 18:25:00,36.7,14.6,30.00,North,0,0.0,0.0,40,0.00,CLR,,0.00,WeatherDisplay:10.37,2013-04-17 02:25:00,
2013-04-16 18:30:00,36.9,14.8,30.00,North,0,0.0,0.0,40,0.00,CLR,,0.00,WeatherDisplay:10.37,2013-04-17 02:30:00,
2013-04-16 18:35:00,36.7,14.6,30.00,North,0,0.0,0.0,40,0.00,CLR,,0.00,WeatherDisplay:10.37,2013-04-17 02:35:00,
2013-04-16 18:40:00,36.3,14.3,30.00,North,0,0.0,0.0,40,0.00,CLR,,0.00,WeatherDisplay:10.37,2013-04-17 02:40:00,
2013-04-16 18:45:00,36.1,14.1,30.00,North,0,0.0,0.0,40,0.00,CLR,,0.00,WeatherDisplay:10.37,2013-04-17 02:45:00,
2013-04-16 18:50:00,36.0,13.9,30.00,North,0,0.0,0.0,40,0.00,CLR,,0.00,WeatherDisplay:10.37,2013-04-17 02:50:00,
2013-04-16 18:55:00,35.6,13.6,30.00,North,0,0.0,0.0,40,0.00,CLR,,0.00,WeatherDisplay:10.37,2013-04-17 02:55:00,
2013-04-16 19:00:00,35.6,14.2,30.00,North,0,0.0,0.0,41,0.00,CLR,,0.00,WeatherDisplay:10.37,2013-04-17 03:00:00,
2013-04-16 19:05:00,35.2,13.9,30.00,North,0,0.0,0.0,41,0.00,CLR,,0.00,WeatherDisplay:10.37,2013-04-17 03:05:00,
2013-04-16 19:10:00,35.2,14.4,30.00,North,0,0.0,0.0,42,0.00,CLR,,0.00,WeatherDisplay:10.37,2013-04-17 03:10:00,
2013-04-16 19:15:00,35.1,15.3,30.00,North,0,0.0,0.0,44,0.00,CLR,,0.00,WeatherDisplay:10.37,2013-04-17 03:15:00,
2013-04-16 19:20:00,34.5,14.8,30.00,North,0,0.0,0.0,44,0.00,CLR,,0.00,WeatherDisplay:10.37,2013-04-17 03:20:00,
2013-04-16 19:25:00,34.3,14.7,30.00,North,0,0.0,0.0,44,0.00,CLR,,0.00,WeatherDisplay:10.37,2013-04-17 03:25:00,
2013-04-16 19:30:00,34.2,14.5,30.00,North,0,0.0,0.0,44,0.00,CLR,,0.00,WeatherDisplay:10.37,2013-04-17 03:30:00,
2013-04-16 19:35:00,34.0,14.3,30.00,North,0,0.0,0.0,44,0.00,CLR,,0.00,WeatherDisplay:10.37,2013-04-17 03:35:00,
2013-04-16 19:40:00,34.0,14.3,30.00,North,0,0.0,0.0,44,0.00,CLR,,0.00,WeatherDisplay:10.37,2013-04-17 03:40:00,
2013-04-16 19:45:00,33.8,14.2,30.00,North,0,0.0,0.0,44,0.00,CLR,,0.00,WeatherDisplay:10.37,2013-04-17 03:45:00,
2013-04-16 19:50:00,33.8,14.2,30.00,North,0,0.0,0.0,44,0.00,CLR,,0.00,WeatherDisplay:10.37,2013-04-17 03:50:00,
2013-04-16 19:55:00,33.8,14.7,30.00,North,0,0.0,0.0,45,0.00,CLR,,0.00,WeatherDisplay:10.37,2013-04-17 03:55:00,
2013-04-16 20:00:00,33.6,15.0,30.00,North,0,0.0,0.0,46,0.00,CLR,,0.00,WeatherDisplay:10.37,2013-04-17 04:00:00,
2013-04-16 20:02:00,33.4,14.8,30.00,North,0,0.0,0.0,46,0.00,CLR,,0.00,WeatherDisplay:10.37,2013-04-17 04:02:00,
2013-04-16 20:04:00,33.4,14.8,30.00,North,0,0.0,0.0,46,0.00,CLR,,0.00,WeatherDisplay:10.37,2013-04-17 04:04:00,
2013-04-16 20:05:00,33.3,14.7,30.00,North,0,0.0,0.0,46,0.00,CLR,,0.00,WeatherDisplay:10.37,2013-04-17 04:05:00,
2013-04-16 20:09:00,33.3,14.7,30.00,North,0,0.0,0.0,46,0.00,CLR,,0.00,WeatherDisplay:10.37,2013-04-17 04:09:00,
2013-04-16 20:14:00,32.7,14.2,30.00,North,0,0.0,0.0,46,0.00,CLR,,0.00,WeatherDisplay:10.37,2013-04-17 04:14:00,
2013-04-16 20:19:00,32.5,14.0,30.00,North,0,0.0,0.0,46,0.00,CLR,,0.00,WeatherDisplay:10.37,2013-04-17 04:19:00,
2013-04-16 20:24:00,32.4,14.4,30.00,North,0,0.0,0.0,47,0.00,CLR,,0.00,WeatherDisplay:10.37,2013-04-17 04:24:00,
2013-04-16 20:29:00,32.2,15.1,30.00,North,0,0.0,0.0,49,0.00,CLR,,0.00,WeatherDisplay:10.37,2013-04-17 04:29:00,
2013-04-16 20:34:00,31.8,15.3,30.00,North,0,0.0,0.0,50,0.00,CLR,,0.00,WeatherDisplay:10.37,2013-04-17 04:34:00,
2013-04-16 20:39:00,31.5,14.9,30.00,North,0,0.0,0.0,50,0.00,CLR,,0.00,WeatherDisplay:10.37,2013-04-17 04:39:00,
2013-04-16 20:44:00,31.3,15.2,30.00,North,0,0.0,0.0,51,0.00,CLR,,0.00,WeatherDisplay:10.37,2013-04-17 04:44:00,
2013-04-16 20:49:00,31.1,15.5,30.00,North,0,0.0,0.0,52,0.00,CLR,,0.00,WeatherDisplay:10.37,2013-04-17 04:49:00,
2013-04-16 20:54:00,30.9,15.3,30.00,North,0,0.0,0.0,52,0.00,CLR,,0.00,WeatherDisplay:10.37,2013-04-17 04:54:00,
2013-04-16 20:59:00,30.6,15.0,30.00,North,0,0.0,0.0,52,0.00,CLR,,0.00,WeatherDisplay:10.37,2013-04-17 04:59:00,
2013-04-16 21:04:00,30.2,14.7,30.00,North,0,0.0,0.0,52,0.00,CLR,,0.00,WeatherDisplay:10.37,2013-04-17 05:04:00,
2013-04-16 21:09:00,30.2,14.7,30.00,North,0,0.0,0.0,52,0.00,CLR,,0.00,WeatherDisplay:10.37,2013-04-17 05:09:00,
2013-04-16 21:14:00,30.4,14.4,30.00,North,0,0.0,0.0,51,0.00,CLR,,0.00,WeatherDisplay:10.37,2013-04-17 05:14:00,
2013-04-16 21:19:00,30.4,13.5,30.00,North,0,0.0,0.0,49,0.00,CLR,,0.00,WeatherDisplay:10.37,2013-04-17 05:19:00,
2013-04-16 21:24:00,30.6,13.2,30.00,North,0,0.0,0.0,48,0.00,CLR,,0.00,WeatherDisplay:10.37,2013-04-17 05:24:00,
2013-04-16 21:29:00,30.6,12.2,30.00,North,0,0.0,0.0,46,0.00,CLR,,0.00,WeatherDisplay:10.37,2013-04-17 05:29:00,
2013-04-16 21:34:00,30.7,11.9,30.00,North,0,0.0,0.0,45,0.00,CLR,,0.00,WeatherDisplay:10.37,2013-04-17 05:34:00,
2013-04-16 21:39:00,31.1,11.7,30.00,North,0,0.0,0.0,44,0.00,CLR,,0.00,WeatherDisplay:10.37,2013-04-17 05:39:00,
2013-04-16 21:44:00,30.6,11.2,30.00,North,0,0.0,0.0,44,0.00,CLR,,0.00,WeatherDisplay:10.37,2013-04-17 05:44:00,
2013-04-16 21:49:00,30.6,10.7,30.00,North,0,0.0,0.0,43,0.00,CLR,,0.00,WeatherDisplay:10.37,2013-04-17 05:49:00,
2013-04-16 21:54:00,30.4,10.5,30.00,North,0,0.0,0.0,43,0.00,CLR,,0.00,WeatherDisplay:10.37,2013-04-17 05:54:00,
2013-04-16 21:59:00,30.2,10.4,30.00,North,0,0.0,0.0,43,0.00,CLR,,0.00,WeatherDisplay:10.37,2013-04-17 05:59:00,
2013-04-16 22:04:00,29.8,10.0,30.00,North,0,0.0,0.0,43,0.00,CLR,,0.00,WeatherDisplay:10.37,2013-04-17 06:04:00,
2013-04-16 22:09:00,29.8,10.0,30.00,North,0,0.0,0.0,43,0.00,CLR,,0.00,WeatherDisplay:10.37,2013-04-17 06:09:00,
2013-04-16 22:14:00,29.8,10.0,30.00,North,0,0.0,0.0,43,0.00,CLR,,0.00,WeatherDisplay:10.37,2013-04-17 06:14:00,
2013-04-16 22:19:00,29.7,9.9,30.00,North,0,0.0,0.0,43,0.00,CLR,,0.00,WeatherDisplay:10.37,2013-04-17 06:19:00,
2013-04-16 22:24:00,29.5,9.7,30.00,North,0,0.0,0.0,43,0.00,CLR,,0.00,WeatherDisplay:10.37,2013-04-17 06:24:00,
2013-04-16 22:29:00,29.1,9.4,30.00,North,0,0.0,0.0,43,0.00,CLR,,0.00,WeatherDisplay:10.37,2013-04-17 06:29:00,
2013-04-16 22:34:00,28.9,9.2,30.00,North,0,0.0,0.0,43,0.00,CLR,,0.00,WeatherDisplay:10.37,2013-04-17 06:34:00,
2013-04-16 22:39:00,28.8,9.0,30.00,North,0,0.0,0.0,43,0.00,CLR,,0.00,WeatherDisplay:10.37,2013-04-17 06:39:00,
2013-04-16 22:44:00,28.9,9.2,30.00,North,0,0.0,0.0,43,0.00,CLR,,0.00,WeatherDisplay:10.37,2013-04-17 06:44:00,
2013-04-16 22:49:00,28.4,9.2,30.00,North,0,0.0,0.0,44,0.00,CLR,,0.00,WeatherDisplay:10.37,2013-04-17 06:49:00,
2013-04-16 22:54:00,28.2,9.1,30.00,North,0,0.0,0.0,44,0.00,CLR,,0.00,WeatherDisplay:10.37,2013-04-17 06:54:00,
2013-04-16 22:59:00,27.7,8.6,30.00,North,0,0.0,0.0,44,0.00,CLR,,0.00,WeatherDisplay:10.37,2013-04-17 06:59:00,
2013-04-16 23:04:00,27.5,8.4,30.00,North,0,0.0,0.0,44,0.00,CLR,,0.00,WeatherDisplay:10.37,2013-04-17 07:04:00,
2013-04-16 23:09:00,27.3,8.2,30.00,North,0,0.0,0.0,44,0.00,CLR,,0.00,WeatherDisplay:10.37,2013-04-17 07:09:00,
2013-04-16 23:14:00,26.8,7.8,30.00,North,0,0.0,0.0,44,0.00,CLR,,0.00,WeatherDisplay:10.37,2013-04-17 07:14:00,
2013-04-16 23:19:00,26.2,7.3,30.00,North,0,0.0,0.0,44,0.00,CLR,,0.00,WeatherDisplay:10.37,2013-04-17 07:19:00,
2013-04-16 23:24:00,25.9,6.9,30.00,North,0,0.0,0.0,44,0.00,CLR,,0.00,WeatherDisplay:10.37,2013-04-17 07:24:00,
2013-04-16 23:29:00,25.5,7.1,30.00,North,0,0.0,0.0,45,0.00,CLR,,0.00,WeatherDisplay:10.37,2013-04-17 07:29:00,
2013-04-16 23:34:00,25.5,7.1,30.00,North,0,0.0,0.0,45,0.00,CLR,,0.00,WeatherDisplay:10.37,2013-04-17 07:34:00,
2013-04-16 23:39:00,25.2,6.8,30.00,North,0,0.0,0.0,45,0.00,CLR,,0.00,WeatherDisplay:10.37,2013-04-17 07:39:00,
2013-04-16 23:44:00,25.0,6.6,30.00,North,0,0.0,0.0,45,0.00,CLR,,0.00,WeatherDisplay:10.37,2013-04-17 07:44:00,
2013-04-16 23:49:00,24.8,6.9,30.00,North,0,0.0,0.0,46,0.00,CLR,,0.00,WeatherDisplay:10.37,2013-04-17 07:49:00,
2013-04-16 23:54:00,24.4,6.6,30.00,North,0,0.0,0.0,46,0.00,CLR,,0.00,WeatherDisplay:10.37,2013-04-17 07:54:00,
2013-04-16 23:59:00,24.3,6.4,30.03,North,0,0.0,0.0,46,0.00,CLR,,0.00,WeatherDisplay:10.37,2013-04-17 07:59:00,